Regional Weather Roundup
Issued by NWS Charleston, SC

Current Version | Previous Version | Text Only | Print | Product List | Glossary Off
Versions: 1 2 3 4 5 6 7 8 9 10 11 12 13 14 15 16 17 18 19 20 21 22 23 24 25 26 27 28 29 30 31 32 33 34 35 36 37 38 39 40 41 42 43 44 45 46 47 48 49 50
000 ASUS42 KCHS 021512 RWRCHS REGIONAL WEATHER ROUNDUP NATIONAL WEATHER SERVICE CHARLESTON SC 1100 AM EDT THU JUL 02 2015 NOTE: "FAIR" INDICATES FEW OR NO CLOUDS BELOW 12,000 FEET WITH NO SIGNIFICANT WEATHER AND/OR OBSTRUCTIONS TO VISIBILITY. NOT ALL STATIONS ARE QUALITY CONTROLLED BY THE NATIONAL WEATHER SERVICE. USE DATA WITH CAUTION...ESPECIALLY DEWPOINT OBSERVATIONS. SCZ027-030-031-034>040-042>050-021600- ...SOUTHEAST SOUTH CAROLINA... CITY SKY/WX TMP DP RH WIND PRES REMARKS N CHARLESTON PTSUNNY 84 70 62 W9G17 30.03S WATERFRONT PAR N/A 83 72 69 W7 30.00S MOUNT PLEASANT FAIR 86 72 62 SW10 30.03S HX 92 JOHNS ISLAND FAIR 86 75 70 SW9 30.03S HX 95 PINOPOLIS NOT AVBL MONCKS CORNER FAIR 86 68 54 W7 30.02F SUMMERVILLE FAIR 82 72 69 SW3 30.03S BEAUFORT MCAS MOSUNNY 87 74 64 W8 30.03S HX 95 BEAUFORT ARPT FAIR 86 73 66 W10 30.03S HX 93 HILTON HEAD IS MOSUNNY 88 73 62 W8 30.05S HX 96 WALTERBORO MOSUNNY 81 70 69 W7 30.03F ALLENDALE FAIR 75 72 88 CALM 30.02F ...SOUTHERN MIDLANDS AND PEE DEE... CITY SKY/WX TMP DP RH WIND PRES REMARKS GEORGETOWN NOT AVBL KINGSTREE NOT AVBL ORANGEBURG PTSUNNY 82 67 60 SW12 30.03R BARNWELL FAIR 77 72 83 SW3 30.04F AIKEN NOT AVBL MANNING FAIR 82 64 54 SW8 30.00F COLUMBIA PTSUNNY 81 67 62 SW9 30.00S SUMTER PTSUNNY 81 68 63 SW12 29.98S FLORENCE MOSUNNY 83 69 62 SW12 29.98S MYRTLE BEACH SUNNY 88 66 48 W14 30.01S HX 90 N MYRTLE BEACH SUNNY 86 68 54 W13G21 29.99S $$ GAZ063-065-086>088-099>101-113>116-118-119-134>141-150-021600- ...SOUTHEAST GEORGIA... CITY SKY/WX TMP DP RH WIND PRES REMARKS SAVANNAH ARPT PTSUNNY 88 71 57 W15 30.04S HX 94 HUNTER AAF SUNNY 89 75 63 W13 30.02S HX 98 FORT STEWART MOSUNNY 87 71 58 W12 30.03S HX 92 STATESBORO NOT AVBL SYLVANIA NOT AVBL CLAXTON NOT AVBL ...CSRA...CENTRAL AND FAR SOUTHEAST GEORGIA... CITY SKY/WX TMP DP RH WIND PRES REMARKS THOMSON NOT AVBL AUGUSTA-BUSH MOSUNNY 82 68 62 SW7 30.02F AUGUSTA-DANIEL SUNNY 82 66 58 VRB6 30.04S SWAINSBORO NOT AVBL VIDALIA NOT AVBL EASTMAN NOT AVBL HAZLEHURST NOT AVBL ALMA PTSUNNY 82 70 66 W14G21 30.07S WAYCROSS NOT AVBL JESUP NOT AVBL BAXLEY FAIR 82 70 65 W14G22 30.07 BRUNSWICK NOT AVBL SAINT SIMONS SUNNY 86 72 62 W10 30.06S HX 92 $$ SCZ027-028-034-036>038-045-046-048>050-GAZ119-141-021600- ...LAKE AND SUPPLEMENTAL COASTAL OBSERVATIONS... STATION/POSITION TIME TEMP WIND PRES WAVE SWELL AIR SEA DIR/SP/G HT/PER HT/PER/DIR (UTC) (F) (DEG/KT/KT) (MB) (FT/S) (FT/S/D) UPR LAKE MARION NOT AVBL WINYAH BAY NOT AVBL LAKE MURRAY 1400 77 220/ 8/ 10 1015.2S ACE BASIN NERRS NOT AVBL FORT PULASKI 1400 83 83 260/ 8/ 11 1017.8F SAPELO ISLAND 1400 84 250/ 7 1018.0S $$ ANZ835-935-AMZ111-154-330-350-352-354-370-450-454-472-021600- ...C-MAN AND BUOY OBSERVATIONS... STATION/POSITION TIME TEMP WIND PRES WAVE SWELL AIR SEA DIR/SP/G HT/PER HT/PER/DIR (UTC) (F) (DEG/KT/KT) (MB) (FT/S) (FT/S/D) BUOY 41004 1450 81 82 230/ 14/ 17 1016.4R 4/ 8 2/ 8 BUOY 41008 1450 78 79 200/ 12/ 12 1018.0F 2/ 5 2/120/ 9 FOLLY BEACH CMAN 1400 83 260/ 6/ 9 1016.8F CAPERS NEARSHORE 1408 81 270/ 14/ 17 1016.8S FRIPP NEARSHORE 1400 81 240/ 12/ 14 1016.8F STATION/POSITION TIME TEMP WIND PRES WAVE SWELL AIR SEA DIR/SP/G HT/PER HT/PER/DIR (UTC) (F) (DEG/KT/KT) (MB) (FT/S) (FT/S/D) 5E ST. MARYS GA 1421 78 N/A 2/ 8 FRYING PAN BUOY 1450 81 80 240/ 17/ 21 1015.8R 4/ 6 2/150/ 7 BUOY 41025 1450 81 83 230/ 16/ 17 1014.2F 4/ 7 2/200/ 7 CAPE LOOKOUT NC 1400 82 230/ 12/ 15 1014.4F BUOY 41002 1450 82 80 230/ 19/ 23 1019.3R 7/ 7 BUOY 41010 1420 83 84 210/ 12/ 14 1020.3F ST AUGUSTINE FL 1500 85 73 260/ 8/ 11 1019.9F $$

USA.gov is the U.S. government's official web portal to all federal, state and local government web resources and services.